Regional Weather Roundup
Issued by NWS State College, PA

Home | Current Version | Previous Version | Graphics & Text | Print | Product List | Glossary On
Versions: 1 2 3 4 5 6 7 8 9 10 11 12 13 14 15 16 17 18 19 20 21 22 23 24 25 26 27 28 29 30 31 32 33 34 35 36 37 38 39 40 41 42 43 44 45 46 47 48 49 50
738
ASUS41 KCTP 281703
RWRCTP

REGIONAL WEATHER ROUNDUP
NATIONAL WEATHER SERVICE STATE COLLEGE PA
100 PM EDT SAT MAY 28 2016

Note: "fair" indicates few or no clouds below 12,000 feet with no
significant weather and/or obstructions to visibility.

* = STATION THAT DOES NOT REPORT PRECIPITATION /E.G. RAIN...SNOW...ETC/
    THUNDER OR FOG.

PAZ002>004-007>009-013>016-020>023-029>032-281800-
WESTERN PENNSYLVANIA

CITY           SKY/WX    TMP DP  RH WIND       PRES   REMARKS
ERIE           MOSUNNY   87  65  47 N7        30.10S
MEADVILLE      PTSUNNY   84  64  50 VRB3      30.14F
FRANKLIN*      PTSUNNY   84  64  51 S8        30.17F
NEW CASTLE     FAIR      85  68  56 VRB6      30.14F
BEAVER COUNTY  MOSUNNY   84  68  58 SW8       30.15F
BUTLER*        MOSUNNY   84  66  54 S7        30.18S
PITTSBURGH INT MOSUNNY   84  64  50 SW6       30.15S
PITTSBURGH     SUNNY     84  66  54 SW6       30.15F
INDIANA*       SUNNY     84  68  58 SW7       30.19F
LATROBE        MOSUNNY   82  68  61 SW8       30.17F
WASHINGTON CO* SUNNY     82  66  57 S9        30.17S
$$

PAZ004>006-010>012-017>019-024>028-033>037-041-042-045-046-049>053-281800-
CENTRAL PENNSYLVANIA

CITY           SKY/WX    TMP DP  RH WIND       PRES   REMARKS
BRADFORD       PTSUNNY   84  61  45 CALM      30.18F
DUBOIS         MOSUNNY   82  63  52 SW8       30.17F
CLEARFIELD     MOSUNNY   87  66  49 NW9       30.17F
JOHNSTOWN      PTSUNNY   78  61  55 SE7       30.20F
ALTOONA        MOSUNNY   84  63  49 VRB3      30.18F
STATE COLLEGE  PTSUNNY   84  63  48 SW6       30.15F
WILLIAMSPORT   SUNNY     87  67  51 VRB3      30.11F
SELINSGROVE    SUNNY     88  66  48 CALM      30.12F
FT INDIANTOWN  SUNNY     85  69  57 SE8       30.13F
CAPITAL CITY   SUNNY     88  68  51 VRB5      30.13F
HARRISBURG     MOSUNNY   87  68  52 SE6       30.12F
YORK           SUNNY     85  69  58 VRB3      30.14F
$$

PAZ038>040-043-044-047-048-054-055-060>062-067>071-281800-
EASTERN PENNSYLVANIA

CITY           SKY/WX    TMP DP  RH WIND       PRES   REMARKS
SCRANTON       MOSUNNY   88  64  44 CALM      30.12F
MOUNT POCONO   PTSUNNY   83  63  50 S13G20    30.18F
ALLENTOWN      SUNNY     88  67  49 S8        30.12F
QUAKERTOWN*    SUNNY     86  68  54 S7        30.15F
READING        SUNNY     88  67  49 W3        30.12F
LANCASTER      MOSUNNY   86  70  58 S8        30.14S
COATESVILLE    SUNNY     84  68  58 VRB5      30.18S
POTTSTOWN      SUNNY     85  68  56 VRB6      30.15F
BLUE BELL      MOSUNNY   84  70  61 S8        30.14S
DOYLESTOWN     SUNNY     85  66  53 SW7       30.13F
WILLOW GROVE   NOT AVBL
NORTH PHILA    SUNNY     87  68  52 S7        30.15F
PHILADELPHIA   SUNNY     85  66  53 SW9       30.15F
$$




USA.gov is the U.S. government's official web portal to all federal, state and local government web resources and services.